Weather Roundup
Issued by NWS Chicago, IL

Home | Current Version | Previous Version | Graphics & Text | Print | Product List | Glossary On
Versions: 1 2 3 4 5 6 7 8 9 10 11 12 13 14 15 16 17 18 19 20 21 22 23 24 25 26 27 28 29 30 31 32 33 34 35 36 37 38 39 40 41 42 43 44 45 46 47 48 49 50
000
NZUS59 KLOT 271708
HRRLOT

CHICAGO AREA WEATHER ROUNDUP
NATIONAL WEATHER SERVICE CHICAGO/ROMEOVILLE IL
1200 PM CDT THU APR 27 2017

NOTE: "FAIR" INDICATES FEW OR NO CLOUDS BELOW 12,000 FEET WITH NO
SIGNIFICANT WEATHER AND/OR OBSTRUCTIONS TO VISIBILITY.

* THESE STATIONS ARE NOT UNDER NWS QUALITY CONTROL. THEY ALSO MAY NOT
  REPORT WEATHER SUCH AS PRECIPITATION OR FOG.

ILZ005-006-012>014-019>023-271800-
NORTHEAST ILLINOIS

CITY           SKY/WX    TMP DP  RH WIND       PRES   REMARKS
OHARE          CLOUDY    46  37  71 W20G28    29.58R
MIDWAY         CLOUDY    46  38  73 W22G29    29.60R
AURORA         CLOUDY    44  39  82 W21       29.61R
LANSING*       CLOUDY    46  41  84 W20G25    29.61R
JOLIET*        CLOUDY    46  39  78 W14G21    29.63R
WAUKEGAN       CLOUDY    46  38  73 W12G28    29.54R
DUPAGE AIRPORT CLOUDY    44  38  79 W20G26    29.59R
WHEELING       CLOUDY    46  38  73 W15G25    29.58R
KANKAKEE*      CLOUDY    47  39  72 W17G29    29.65R
MORRIS*        CLOUDY    44  39  83 W16G22    29.63R
LEWIS AIRPORT* CLOUDY    43  40  90 W20G31    29.62R
NORTHERLY ISL    N/A     47  37  68 SW20        N/A
$$

WIZ051-052-058>065-066-070>072-271800-
SOUTHEAST WISCONSIN

CITY           SKY/WX    TMP DP  RH WIND       PRES   REMARKS
MILWAUKEE      LGT RAIN  46  37  71 W23G33    29.50R
KENOSHA*       CLOUDY    46  37  71 W26G33    29.53R
RACINE*        CLOUDY    46  37  71 W18G29    29.53R
WAUKESHA       CLOUDY    37  36  93 W17G23    29.51R
WEST BEND      LGT RAIN  37  36  93 W16G28    29.47R
$$

INZ001>003-010>013-019-020-271800-
NORTHWEST INDIANA

CITY           SKY/WX    TMP DP  RH WIND       PRES   REMARKS
GARY*          CLOUDY    48  39  71 W16G32    29.61R
MICHIGAN CITY* NOT AVBL
RENSSELAER*    NOT AVBL
VALPARAISO     CLOUDY    49  42  77 SW24G33   29.61R
$$

LMZ740>746-271800-
SOUTHERN LAKE MICHIGAN

STATION/POSITION TIME  SKY/WX   TEMP WIND        PRES    VSBY
                                AIR  DIR/SP/G
                 (UTC)          (F)  (DEG/KT/KT) (MB)    (MI)
HARRISON CRIB    1630            47  240/ 23/ 26   N/A
BURNHAM HARBOR   1700            47  210/  8/ 20   N/A
CALUMET HARBOR   1648            47  230/ 13/ 19 1001.7R
BURNS HARBOR     1640            49  240/ 20/ 25 1002.4R
MICHIGAN CITY    1640            47  230/ 25/ 28   N/A
$$

ABBREVIATIONS USED IN REMARKS
   TC - TEMPERATURE IN CELSIUS
  WCI - WIND CHILL INDEX
   HX - HEAT INDEX
  VSB - VISIBILITY
$$



USA.gov is the U.S. government's official web portal to all federal, state and local government web resources and services.